RH
20 18 16 13 11 10 10 9 8 8 7 7 7 6 5 4 3 4 3 3 3 3 5 4 5 9 10 9 5 4 5 1 2 10 12 14 21 16 14 20 19 17 9 15 45 60 61 63 56 52 50 47 45 41 43 47 50 52 58 68 70 71 68 65 54 39 49 51 40 42 40 38 38 40 42 41 39 37 40 40 41 46 46 47 49 52 56 60
22 22 21 19 16 12 11 10 10 9 8 8 7 7 6 4 4 3 3 4 3 4 5 3 6 7 7 6 4 6 3 2 13 29 33 21 10 7 10 16 19 16 8 24 51 54 54 56 52 52 47 44 39 36 40 42 46 45 43 59 68 73 66 49 37 38 56 53 36 38 37 35 37 39 39 38 36 36 38 39 41 45 47 49 49 53 58 59
21 21 22 22 20 17 15 13 11 10 10 9 8 8 6 5 4 3 3 3 3 4 4 4 6 5 7 4 5 6 -0 16 35 46 50 35 18 14 14 14 18 15 7 30 52 47 47 48 48 48 42 38 33 31 36 38 41 37 37 55 63 66 57 36 29 32 49 56 42 35 35 37 37 37 37 35 35 34 34 37 41 44 47 49 50 54 59 59
19 19 20 20 20 20 19 17 14 12 11 10 10 9 7 6 4 3 3 3 4 4 3 4 5 6 7 4 7 4 5 27 39 46 51 38 29 26 21 16 19 13 10 36 51 43 42 42 44 44 37 33 28 28 32 34 37 32 31 44 54 62 54 33 31 30 32 43 43 34 36 43 40 35 35 35 37 37 39 40 40 44 47 49 50 53 58 59
18 19 20 20 19 18 19 20 17 15 13 11 11 9 9 7 5 4 3 4 4 3 4 4 5 7 5 7 8 6 19 28 28 40 38 26 27 28 23 20 20 11 14 42 49 41 39 39 42 40 33 29 24 24 26 28 32 31 27 32 46 59 54 34 30 33 29 31 36 33 36 44 39 32 38 45 44 42 50 48 41 45 47 49 51 52 56 56
16 18 20 21 20 18 18 18 18 17 15 13 12 10 10 8 6 5 4 5 4 4 4 3 6 6 7 9 3 14 36 27 23 35 26 18 21 21 21 21 20 11 20 45 45 39 37 36 40 36 31 26 23 21 21 23 26 29 26 26 36 45 47 39 32 32 31 29 32 32 32 37 34 31 40 47 43 41 50 50 41 45 48 50 53 53 54 54
14 16 18 22 22 21 19 18 18 18 16 14 13 12 10 9 8 6 5 4 4 4 3 4 7 6 8 7 8 33 44 24 23 27 15 14 15 17 20 22 20 12 27 45 40 38 34 34 38 30 26 24 21 19 18 19 19 25 25 23 28 33 35 36 34 33 31 29 29 32 32 32 31 35 43 43 41 41 45 46 43 46 48 50 53 53 53 54
12 14 17 21 23 23 21 19 19 19 18 15 13 13 10 9 8 6 6 5 5 4 4 7 6 7 8 5 23 42 33 22 25 21 16 13 12 19 20 22 20 13 30 40 35 36 31 32 35 26 22 20 16 15 17 16 15 20 22 22 25 28 31 32 34 32 30 29 28 30 31 31 32 35 42 44 43 40 40 42 44 47 48 50 51 52 53 54
12 12 16 20 23 24 23 21 20 20 19 16 14 13 11 10 8 7 7 5 5 4 5 8 5 10 8 10 32 33 19 23 22 20 29 24 16 19 22 24 19 20 35 37 33 33 29 31 32 24 19 16 13 12 14 15 16 19 19 20 20 23 28 30 32 30 30 28 26 29 28 30 36 36 38 43 42 38 39 42 45 47 47 49 51 51 53 55
11 12 15 20 23 24 24 23 21 21 19 18 16 13 11 10 9 8 7 6 6 5 7 9 11 15 14 25 38 23 17 24 20 22 33 35 27 22 29 30 23 32 40 34 33 31 28 30 27 22 17 14 13 10 11 14 17 19 19 19 18 20 24 27 30 29 29 27 25 27 26 31 37 37 37 38 39 40 40 42 45 46 47 49 50 51 53 55
10 11 15 19 23 24 24 24 23 22 20 19 16 13 12 9 9 8 6 6 5 7 10 13 17 16 22 41 36 18 20 21 18 24 27 37 40 34 38 35 30 40 41 35 34 30 28 27 22 20 16 14 12 10 10 12 16 18 18 19 18 18 20 23 26 28 28 26 27 24 27 38 37 35 40 36 38 42 40 41 45 45 46 48 49 51 53 54
10 11 15 18 22 23 24 23 23 22 20 19 15 13 11 7 8 7 6 7 5 9 14 18 18 16 35 49 31 19 24 22 21 23 23 31 38 40 43 39 36 40 39 36 32 28 27 24 20 19 15 12 10 10 11 11 14 15 15 17 17 16 16 18 21 26 27 25 27 24 30 45 41 38 42 36 36 41 39 41 44 43 45 47 48 51 53 54
10 11 15 19 22 22 23 23 23 22 20 18 14 13 10 7 9 7 8 8 7 12 16 20 16 23 49 45 23 21 22 24 24 20 22 24 28 35 40 41 40 40 40 35 29 27 25 23 21 18 15 11 8 9 11 10 12 13 13 13 14 14 14 15 17 22 24 25 25 25 37 49 45 39 38 37 39 41 41 41 42 43 44 46 48 50 53 54
10 12 15 20 22 22 23 23 22 21 19 17 15 14 9 8 10 9 11 8 9 16 18 20 18 36 58 35 17 20 16 23 26 21 21 20 26 30 33 39 40 41 40 35 31 27 24 23 22 19 17 13 9 9 11 10 10 11 11 11 13 14 13 12 15 19 22 26 23 25 40 44 38 33 32 40 43 41 47 46 40 43 44 45 48 50 52 53
10 12 16 21 23 23 23 23 22 19 18 18 16 14 9 10 12 10 9 7 14 18 16 21 23 46 57 27 18 20 13 22 25 22 19 16 23 26 28 35 37 38 38 36 34 29 25 23 22 21 18 15 12 10 11 10 9 9 11 12 11 12 13 11 13 19 21 25 23 25 37 36 31 30 33 44 44 43 55 52 40 41 43 43 46 49 51 52
10 12 17 23 24 24 23 22 21 19 19 19 16 13 11 12 10 8 7 11 22 19 20 34 37 49 48 19 17 21 15 19 17 15 16 15 18 21 28 34 34 36 36 36 34 29 27 24 23 21 17 15 11 10 11 10 9 9 11 12 12 12 12 11 13 18 19 22 23 22 30 36 31 27 35 46 43 45 53 48 40 41 43 43 45 48 48 50
10 12 17 23 25 24 23 22 20 20 20 20 17 15 16 14 10 10 11 13 21 17 20 35 40 44 36 14 13 17 13 14 12 13 16 17 16 22 33 33 31 34 33 32 30 29 28 25 24 19 15 13 9 10 11 11 10 8 11 11 11 11 11 12 15 19 19 21 24 22 27 33 28 26 40 47 40 42 44 39 42 42 41 43 44 47 48 49
10 12 17 23 26 25 23 21 21 20 21 20 19 21 21 17 12 12 16 20 25 28 26 26 33 37 27 12 12 13 12 13 15 14 15 17 14 22 33 30 29 31 28 27 26 27 26 23 20 15 14 13 11 11 10 11 9 7 11 11 11 11 10 11 15 19 20 20 25 27 26 25 27 30 36 40 39 40 36 34 46 47 41 44 44 45 47 48
10 12 16 22 25 25 23 21 21 21 22 21 21 25 25 26 27 21 26 33 32 33 30 22 24 24 16 12 12 12 13 15 16 15 16 17 14 21 30 27 25 26 23 22 23 23 21 18 16 14 14 13 12 11 8 8 7 7 8 10 12 11 10 10 12 16 18 21 24 28 28 24 31 36 31 33 36 37 31 36 56 53 40 42 44 45 46 47
10 11 17 22 25 26 24 22 22 22 23 24 24 25 25 28 31 26 25 27 21 18 18 15 14 13 12 13 12 12 13 14 14 16 18 17 16 23 29 24 22 22 20 18 20 20 17 16 15 15 13 11 11 10 8 7 5 7 7 8 11 10 11 9 10 14 16 21 22 23 25 22 30 35 28 29 33 35 31 39 59 50 36 44 44 42 46 47
9 11 17 22 25 26 25 23 23 23 25 28 26 23 24 22 23 25 22 16 13 15 15 14 14 12 12 13 12 13 13 13 13 16 19 18 20 25 26 22 19 19 17 16 17 17 16 16 14 13 11 10 10 9 9 8 6 7 8 9 9 9 11 8 9 14 15 20 22 21 23 23 32 32 24 25 29 34 34 41 58 45 32 46 45 41 46 47
9 12 17 23 27 26 27 25 23 24 26 30 28 23 25 26 26 29 28 18 14 15 14 14 14 12 11 12 13 13 12 12 13 15 18 21 23 24 23 20 17 16 15 14 16 17 18 17 13 10 10 9 9 9 8 8 7 7 9 10 10 9 10 9 9 12 15 19 20 21 22 23 29 26 20 23 25 30 33 36 51 48 37 45 46 42 47 48
9 12 17 25 27 28 29 25 24 29 30 29 28 26 27 29 30 31 30 23 17 15 14 14 13 11 10 12 13 12 12 11 11 14 17 20 21 21 23 20 16 15 14 14 15 18 19 17 12 9 9 10 10 9 9 8 8 8 8 10 11 10 11 11 9 9 12 16 17 19 21 21 21 21 21 24 25 27 31 31 38 44 40 42 45 43 49 51
9 12 19 25 27 29 29 26 28 34 34 30 27 29 31 31 31 32 30 23 16 13 14 13 13 12 10 11 12 12 11 10 11 13 15 16 15 18 23 21 18 16 13 14 14 15 16 13 12 10 10 11 11 10 10 10 9 8 8 8 10 10 11 11 10 9 10 12 15 16 20 22 20 22 22 25 29 27 27 30 30 34 37 40 44 44 47 51
9 13 20 26 29 30 29 31 34 32 31 30 28 28 30 31 31 32 32 24 16 13 14 14 13 12 11 10 11 10 11 11 11 13 14 15 14 17 19 19 21 18 14 14 13 14 13 10 11 10 10 11 11 10 10 10 10 8 8 7 8 9 9 10 10 11 12 14 15 14 22 25 20 21 21 22 31 31 29 29 26 29 40 44 42 42 46 47
9 15 23 29 31 30 30 34 36 31 28 28 29 28 31 33 30 32 33 24 16 12 13 13 11 11 11 10 10 10 11 11 11 13 14 15 15 15 15 14 17 18 15 13 13 13 12 10 10 10 10 11 11 11 9 9 10 9 7 6 7 7 6 8 10 13 15 15 13 13 19 23 19 20 20 18 23 28 30 29 24 25 37 45 40 42 47 46
12 21 29 32 32 31 32 35 36 31 27 28 29 29 32 30 23 29 33 23 16 13 11 12 10 10 10 10 10 10 12 12 11 13 15 15 15 15 15 13 14 17 15 14 16 15 12 12 11 10 10 10 11 11 9 9 10 9 6 5 6 6 5 7 9 13 15 14 13 12 14 19 20 19 18 17 17 19 22 25 25 22 27 40 41 42 46 44
23 30 34 34 34 34 32 33 36 32 29 30 30 31 33 27 22 30 32 23 17 12 10 11 11 11 10 10 10 9 11 12 11 13 14 14 15 14 13 11 12 14 13 16 20 16 11 12 12 10 11 11 10 10 9 9 9 8 5 5 6 5 5 5 7 12 13 16 18 13 13 19 20 16 14 16 17 18 20 20 23 23 24 32 38 41 42 41
33 35 36 34 35 38 34 35 39 36 34 34 33 33 34 30 29 30 27 23 17 11 11 12 11 11 10 9 10 9 9 10 10 11 12 13 14 15 13 11 11 11 11 14 18 15 12 12 11 9 11 11 10 10 9 8 8 7 5 5 6 6 6 5 6 9 12 17 21 16 14 16 16 15 14 16 17 18 19 18 19 23 25 30 35 37 38 41
36 36 36 35 41 46 42 42 44 40 36 34 34 34 32 31 31 29 26 23 15 11 12 11 10 11 10 9 9 9 9 9 9 10 11 13 13 13 12 12 11 11 12 12 13 14 12 11 10 9 11 11 10 9 8 7 6 7 6 6 8 8 8 8 6 7 10 14 16 14 13 14 15 16 15 15 16 16 16 17 17 21 26 31 35 36 37 40
38 38 37 36 41 43 41 42 41 40 37 32 34 35 31 28 26 26 26 19 12 12 12 11 11 11 9 9 9 8 8 9 8 9 11 12 12 12 11 12 12 11 12 12 12 13 13 13 12 10 10 10 10 9 7 7 6 7 8 7 9 11 11 12 10 8 11 12 10 10 11 14 18 17 14 13 13 13 14 15 16 20 24 28 33 34 34 36
40 38 37 38 37 37 43 42 36 35 32 28 35 35 28 26 23 20 19 15 14 14 11 11 11 10 10 9 9 9 8 8 8 8 9 10 11 12 11 12 14 16 15 12 10 12 13 13 12 12 12 10 11 11 8 8 8 8 9 10 12 14 16 17 14 11 12 10 7 7 10 15 18 15 12 12 11 11 12 13 15 17 20 25 31 33 31 33
41 39 38 38 37 39 46 44 36 33 28 29 37 32 23 26 25 18 13 13 15 13 11 12 10 10 10 9 10 10 8 9 9 7 8 9 10 12 14 13 14 17 17 14 12 11 12 13 12 13 13 11 12 12 11 11 11 11 10 12 14 16 19 21 16 13 13 10 7 6 10 15 16 14 12 11 10 9 10 12 13 14 16 22 29 32 28 31
40 39 37 37 39 42 44 42 39 36 32 34 35 27 24 26 22 17 14 13 13 11 11 11 10 10 11 11 12 10 9 11 10 8 7 9 9 12 16 16 14 14 15 16 15 13 13 15 13 12 13 13 13 12 11 10 11 12 10 11 14 14 17 19 15 14 13 10 8 6 10 14 14 13 11 10 10 9 9 11 12 13 14 19 28 30 27 28
42 42 39 42 47 45 41 40 40 37 36 34 29 24 26 24 18 16 16 13 12 11 11 11 10 10 11 12 13 11 11 11 10 10 8 8 10 13 17 18 16 15 15 17 17 15 14 13 10 10 10 13 15 12 10 10 11 12 10 12 14 12 13 15 13 13 11 10 10 9 10 10 10 10 9 9 10 10 9 10 10 11 12 18 27 30 27 25
46 50 47 48 46 39 36 38 37 38 36 30 26 24 22 21 18 16 16 14 12 12 11 11 11 11 11 13 13 13 13 10 10 11 9 9 13 15 18 19 16 15 16 19 19 18 18 14 9 11 10 9 13 13 11 12 12 12 13 14 13 10 11 14 15 14 13 13 12 10 10 9 8 9 8 8 10 10 10 10 11 12 12 17 23 26 25 24
44 54 53 45 38 33 35 37 36 38 34 26 26 24 18 18 18 15 15 14 12 12 12 12 14 13 13 13 13 14 13 11 11 13 11 11 15 17 19 20 18 17 17 18 18 18 21 20 14 14 13 9 9 11 11 11 12 12 13 13 11 10 11 13 16 16 17 18 14 10 10 11 11 10 8 9 10 10 10 11 11 12 13 15 18 21 22 23
45 57 52 38 33 33 33 34 35 34 29 24 27 26 19 17 17 16 15 13 13 12 12 13 15 15 14 13 13 13 14 12 12 13 13 12 17 20 20 21 20 18 17 18 18 17 19 23 18 13 14 12 9 11 12 11 11 11 12 10 11 15 16 15 17 18 19 20 17 13 11 11 11 10 8 9 11 11 11 11 11 11 13 14 14 15 18 20
53 59 46 33 32 31 31 34 34 30 26 24 24 23 19 18 18 17 16 15 13 13 14 15 15 15 14 15 15 14 14 15 13 14 14 13 17 21 20 20 20 18 17 18 18 16 18 23 22 13 11 12 11 13 14 13 11 10 11 10 11 14 15 15 16 16 18 19 17 15 13 11 10 9 9 9 10 11 11 11 12 10 11 11 11 12 13 16
57 49 36 33 30 28 31 34 32 27 23 23 21 19 19 19 19 18 18 17 15 13 16 16 15 16 15 16 16 14 14 16 15 14 15 14 15 19 20 19 19 18 17 16 17 17 17 22 24 16 10 12 13 14 15 14 13 11 12 13 13 14 13 13 14 13 15 19 18 17 15 12 8 7 9 9 9 9 9 10 10 10 9 9 9 10 11 13
56 41 32 33 29 30 34 31 26 21 18 21 22 20 22 21 19 20 19 18 16 15 15 15 16 17 16 17 16 14 16 17 15 14 14 13 13 18 21 20 19 17 17 17 15 17 20 23 24 19 15 15 13 10 12 13 12 12 12 13 14 15 15 16 17 14 12 15 16 18 18 13 7 6 7 7 7 8 8 8 8 7 8 7 8 10 11 12
49 37 33 33 29 33 33 24 20 19 18 21 23 22 25 24 20 21 20 19 17 16 16 16 16 17 17 18 18 16 17 16 15 15 13 12 12 17 21 21 19 17 17 16 14 21 29 29 29 27 21 17 13 9 10 12 11 11 11 12 12 13 15 18 20 16 13 14 13 15 17 13 8 8 7 7 7 6 7 7 7 7 6 6 6 9 10 11
39 33 33 34 31 33 32 24 21 22 21 23 23 23 24 24 22 21 20 20 18 18 18 16 15 18 18 18 18 18 18 18 17 16 15 14 15 19 22 21 20 17 16 17 17 26 33 31 33 34 25 19 16 13 13 14 14 14 12 12 12 10 12 15 16 15 14 15 14 16 18 14 10 10 9 7 7 6 7 6 6 6 6 6 6 7 9 11
39 37 33 31 33 31 29 25 22 24 25 24 24 24 24 24 25 24 22 22 21 19 19 17 17 19 18 17 19 19 19 23 23 19 18 18 19 21 21 21 22 17 15 22 27 29 32 32 34 35 30 26 22 18 18 17 15 15 13 14 14 11 11 12 14 16 17 16 15 17 18 13 10 11 10 9 8 7 6 6 7 7 7 7 7 7 10 12
43 40 32 29 33 30 26 25 22 23 26 26 26 24 23 25 27 27 25 25 24 21 20 20 21 20 18 18 21 22 22 25 27 24 23 24 23 22 21 23 25 19 17 28 32 27 28 33 37 41 39 32 26 25 26 23 20 17 14 14 14 12 12 13 15 18 22 24 21 18 17 13 10 12 12 11 9 8 8 7 7 8 8 7 7 8 12 16
39 34 30 28 28 25 26 27 25 25 24 26 29 25 21 22 25 28 26 25 25 22 19 20 19 18 21 25 29 31 29 27 28 28 29 28 25 24 25 27 26 21 22 31 31 22 24 30 35 43 44 36 34 37 35 30 28 25 20 17 14 13 13 15 17 19 22 26 25 20 19 17 12 11 12 13 12 10 8 7 6 8 8 8 8 9 13 18
34 33 35 36 32 26 25 24 24 26 22 24 30 28 24 22 22 27 28 26 26 23 21 24 23 24 30 35 37 36 32 30 30 31 31 30 27 25 26 26 25 24 26 30 27 23 27 28 27 32 35 32 33 34 31 28 28 26 23 20 18 18 16 15 19 22 21 24 26 22 21 22 18 14 14 15 13 10 9 9 10 9 8 10 12 11 13 17
35 38 39 44 38 28 28 27 23 23 24 26 29 28 26 24 25 29 29 26 25 24 26 31 32 32 35 38 39 39 39 39 37 36 35 34 32 30 28 26 24 24 25 25 22 21 25 26 21 22 24 22 22 22 22 23 24 23 23 22 21 22 20 18 20 21 20 23 26 23 22 23 20 15 17 22 20 16 16 15 14 13 13 15 17 14 11 12
41 39 34 38 35 28 32 32 25 24 27 32 31 28 27 27 29 31 28 27 28 27 31 35 36 36 36 37 41 45 48 46 43 43 42 41 40 37 34 32 28 24 23 22 20 20 24 25 20 18 20 19 19 19 18 20 22 22 23 21 21 21 21 20 19 18 19 22 22 21 24 27 21 15 21 29 26 21 21 18 15 17 20 21 21 18 14 13
50 47 43 38 31 29 31 29 28 28 28 32 35 34 33 32 33 32 27 29 32 32 33 36 37 38 36 37 42 45 44 43 44 45 44 44 44 40 37 37 32 26 25 24 23 23 28 30 24 22 24 23 20 19 19 20 22 24 24 20 20 21 20 20 19 18 21 22 20 19 24 27 21 15 21 29 27 23 23 20 16 21 26 26 25 24 23 23
64 66 67 53 37 37 37 30 31 32 29 32 37 38 38 37 37 37 32 29 32 34 33 34 38 39 36 37 42 41 38 37 38 38 36 37 38 35 33 33 30 29 28 28 26 26 30 32 26 23 26 24 19 19 19 19 19 23 25 22 21 21 21 20 19 19 21 21 21 21 23 25 21 16 22 30 26 22 23 23 22 26 31 32 31 29 29 30
74 70 70 59 43 41 40 32 30 33 34 37 41 42 42 39 37 40 41 37 33 33 32 34 39 40 39 41 43 40 37 35 33 32 31 31 31 29 28 27 26 28 30 29 28 26 28 30 28 28 30 24 18 17 17 17 20 23 23 21 20 21 21 20 19 19 19 19 22 22 21 21 19 18 28 35 31 29 31 32 32 32 32 32 34 36 36 34
Wind_Speed
20 20 20 20 20 19 19 19 19 18 18 17 16 16 16 16 15 14 14 14 15 15 16 16 17 17 16 13 9 8 7 6 5 6 7 5 8 13 12 11 15 17 16 16 17 19 19 19 18 16 14 14 14 14 13 13 11 9 5 5 4 1 3 4 3 5 8 6 10 12 11 11 11 11 11 10 12 14 12 12 13 10 10 18 25 31 33 32
20 20 20 20 20 19 19 18 18 18 18 17 17 16 16 16 16 15 14 14 15 15 15 16 17 16 15 11 8 9 7 4 3 6 9 8 11 12 11 12 16 19 19 19 21 22 21 21 20 17 15 14 13 14 12 12 12 10 5 4 2 1 7 7 1 11 12 7 8 13 11 10 11 11 11 10 12 13 12 13 14 14 17 23 30 33 34 33
20 20 20 19 19 19 18 18 18 18 18 18 17 17 17 17 16 16 14 15 14 14 15 15 16 14 13 11 9 9 6 4 3 3 5 7 9 9 11 14 17 21 21 20 21 22 20 19 19 19 17 14 13 12 11 10 10 10 8 5 1 4 9 2 5 9 14 11 9 11 9 8 11 11 11 10 12 12 10 13 14 17 22 27 32 34 34 34
21 21 20 19 19 19 18 18 18 18 18 18 17 17 17 18 17 17 15 15 14 14 14 14 14 12 11 11 11 10 6 3 2 3 4 7 7 8 9 14 18 21 22 18 19 20 17 17 17 18 16 13 13 12 10 10 9 8 9 4 1 8 10 2 5 7 7 8 8 10 9 8 10 11 10 8 9 9 7 12 15 19 24 29 32 33 33 33
21 21 20 20 19 19 18 18 18 18 18 18 18 17 17 18 18 17 17 15 14 14 14 14 12 10 9 9 12 12 6 2 4 3 6 5 5 7 7 12 18 21 23 17 18 19 17 16 16 17 15 12 12 12 11 13 11 7 9 5 5 11 8 2 3 5 4 1 6 10 9 9 11 10 9 9 5 4 4 9 16 21 26 30 32 32 32 33
21 21 21 20 19 19 18 18 18 18 18 18 18 17 17 17 18 17 17 16 15 15 14 13 11 10 8 8 12 10 4 1 5 4 7 3 4 6 6 10 18 23 23 18 19 20 19 18 17 17 15 12 11 11 10 14 13 8 10 7 7 10 6 1 1 3 3 1 5 8 8 9 10 9 11 11 5 3 5 11 16 22 26 29 32 31 32 33
22 22 22 21 20 20 18 18 17 17 17 17 18 18 17 17 17 17 17 16 15 15 14 13 10 8 8 9 10 5 8 3 6 7 9 6 5 4 5 9 19 25 24 19 21 21 20 20 19 17 13 11 11 12 12 14 14 10 10 8 5 7 6 4 3 1 2 1 2 4 6 9 9 8 11 9 5 4 8 15 18 22 26 28 31 31 31 32
23 23 23 22 21 21 19 18 17 18 17 17 17 17 17 17 17 17 16 16 15 14 12 11 9 8 8 7 7 7 8 3 4 8 10 7 4 3 4 14 21 26 24 21 22 22 21 21 20 17 12 10 11 11 12 13 13 13 12 10 6 6 7 6 6 5 4 3 2 3 6 9 7 9 10 8 6 6 10 16 19 22 25 28 29 29 30 31
24 24 23 22 21 21 20 18 18 18 17 17 17 16 17 16 17 16 16 16 14 13 10 10 9 8 7 4 6 9 3 3 4 6 6 5 2 2 8 17 23 25 22 20 21 21 20 19 20 17 12 11 12 12 13 11 8 10 14 14 10 8 8 8 8 8 6 6 4 5 8 8 10 9 9 11 8 8 14 16 19 22 25 27 27 28 29 30
24 23 23 21 20 20 19 19 18 18 18 18 18 17 16 16 16 16 15 15 12 10 9 9 8 7 4 3 8 7 4 2 5 4 3 3 4 7 11 15 21 22 19 19 21 21 20 18 18 18 15 12 12 12 13 12 7 6 10 14 14 12 10 9 9 9 9 7 5 7 7 8 11 9 6 12 11 9 16 17 18 22 24 26 25 27 28 29
24 23 23 21 20 20 19 19 18 17 18 18 19 18 17 16 15 14 13 12 10 9 9 7 7 4 3 4 11 5 3 3 3 3 2 2 4 7 10 13 18 19 17 18 20 21 20 17 15 15 13 10 12 12 14 15 12 10 9 10 13 15 14 12 11 11 11 8 8 10 6 7 9 9 4 11 15 13 16 17 18 21 23 24 25 26 27 28
24 24 23 22 21 20 19 19 17 17 18 19 19 19 18 16 13 12 10 9 7 8 7 7 6 1 1 7 9 5 7 4 3 2 1 2 4 7 9 11 16 18 16 16 18 19 19 17 14 15 11 5 9 9 9 14 16 16 12 10 11 13 14 16 15 14 13 9 10 11 5 4 6 8 9 12 14 14 16 17 18 20 21 23 24 26 26 27
24 24 23 23 22 21 19 18 17 17 18 19 19 19 18 14 10 8 6 6 6 6 6 8 3 4 1 6 3 5 6 2 3 2 2 3 4 7 9 11 14 16 15 15 15 17 19 17 15 18 14 8 9 4 4 9 14 14 13 10 10 11 11 15 16 17 15 10 12 12 5 3 7 11 12 13 15 15 16 18 19 20 21 22 24 25 26 27
24 23 23 23 22 21 19 17 16 17 18 18 20 19 15 11 8 6 5 7 5 4 7 5 2 5 4 4 2 6 8 3 3 2 2 4 5 6 8 10 13 16 15 14 13 14 17 18 15 17 18 15 13 6 6 9 10 11 12 10 9 9 9 13 16 17 15 12 15 13 6 5 9 12 11 11 14 15 14 17 19 20 21 22 24 24 25 27
23 23 23 23 23 20 18 17 16 17 17 18 20 17 13 10 6 5 7 6 2 4 8 3 3 1 8 4 3 6 11 6 2 3 4 4 6 7 8 10 12 15 14 13 12 12 15 17 16 15 15 17 16 10 6 9 8 9 11 9 10 9 10 12 16 17 15 14 18 14 6 5 8 12 15 14 15 15 14 17 19 20 21 22 24 24 25 27
22 22 22 23 22 19 17 16 16 17 18 20 19 15 13 8 6 8 8 4 1 4 8 3 3 5 8 1 2 4 9 5 4 5 6 6 7 6 8 10 11 14 14 12 11 10 13 15 16 16 14 13 13 9 7 8 9 9 10 10 11 12 11 10 12 17 17 14 17 16 7 5 7 9 18 18 17 17 16 16 17 19 22 22 24 24 24 26
21 22 22 23 22 19 17 16 16 17 18 20 17 14 13 7 6 10 8 5 2 1 4 4 4 7 7 4 1 4 8 7 7 5 6 7 8 5 7 10 11 15 13 12 11 10 13 13 13 13 13 12 9 9 8 9 10 9 10 11 12 14 13 9 9 14 18 15 14 15 10 7 6 6 19 24 20 19 19 18 18 20 21 22 23 24 25 26
21 21 22 23 22 19 16 16 16 17 19 18 14 13 13 7 5 10 8 6 5 3 3 2 2 6 3 3 4 6 8 7 4 2 6 7 8 7 9 10 11 15 14 13 13 13 14 14 13 10 9 11 10 10 10 11 12 11 11 10 12 14 14 13 10 12 17 17 14 14 13 9 8 7 17 24 21 20 21 18 17 20 22 23 23 23 24 26
21 21 22 23 22 19 16 16 15 17 20 16 14 14 13 10 8 6 6 3 4 5 3 1 3 4 1 5 7 8 6 4 2 1 5 6 8 10 10 9 11 16 15 12 13 16 14 12 12 10 10 12 13 14 14 14 14 13 13 12 13 13 12 14 12 12 15 16 15 14 13 12 13 14 17 20 22 21 18 16 18 23 22 21 21 22 22 24
22 21 21 22 22 19 16 16 14 16 19 15 17 15 9 10 7 1 6 7 6 5 4 3 5 5 4 6 8 9 5 2 1 0 4 6 8 11 12 11 13 15 14 11 12 17 15 11 11 12 14 16 18 18 17 17 15 12 12 13 15 14 12 14 12 12 13 13 15 15 15 12 12 14 17 21 22 17 16 16 20 22 22 21 21 21 22 23
21 21 21 20 21 19 16 15 13 13 15 14 17 12 6 11 7 4 11 8 3 2 3 2 4 4 4 6 7 8 4 1 2 2 3 7 9 11 12 12 13 11 12 14 12 15 15 11 13 16 17 17 17 18 17 18 17 13 11 11 13 14 13 13 12 13 13 11 12 15 16 11 12 15 15 19 19 16 19 20 19 21 21 21 22 20 21 22
21 21 21 20 19 18 15 13 11 11 12 11 11 9 6 9 7 7 10 8 3 3 4 2 3 3 3 3 4 5 5 4 3 4 2 7 10 11 11 12 12 9 12 15 11 11 13 13 16 18 17 17 15 17 18 18 17 13 10 10 9 10 12 14 14 15 14 10 10 15 16 12 16 18 13 14 14 16 21 23 23 24 21 21 21 20 21 22
21 21 21 20 19 18 16 12 9 10 12 9 6 7 7 7 7 7 7 9 7 7 6 4 3 3 4 1 1 4 7 5 1 4 2 6 10 11 10 9 12 11 12 14 12 10 10 12 17 18 16 17 17 16 17 16 14 12 10 10 9 9 11 10 12 15 16 11 9 13 14 12 14 15 13 14 15 17 21 25 25 25 23 23 22 20 22 24
21 21 21 21 20 18 15 10 6 8 9 5 4 7 8 7 7 7 7 10 8 8 7 3 3 2 4 2 2 7 6 3 3 2 1 7 8 8 10 9 11 12 12 15 17 14 12 11 16 19 17 18 18 16 15 13 11 13 14 12 10 11 12 11 11 13 13 10 9 11 11 10 11 14 14 15 16 19 21 26 25 21 20 21 21 19 21 24
20 21 22 22 20 17 11 5 3 6 7 3 3 8 9 8 7 6 6 9 6 7 8 4 4 2 2 2 3 7 5 4 3 2 0 7 7 4 8 10 10 11 13 17 17 14 14 13 14 18 19 19 18 16 15 13 10 12 16 16 14 13 12 13 13 10 9 11 12 13 10 9 13 16 15 14 18 20 20 23 23 20 20 22 21 19 20 23
20 22 22 22 21 16 7 2 1 7 7 2 4 11 10 9 8 5 4 7 4 6 8 5 3 2 0 2 2 5 5 4 2 1 1 4 7 7 7 9 9 11 13 13 12 9 11 15 14 13 18 20 18 15 16 15 11 9 13 16 18 17 14 14 13 9 9 10 12 16 12 9 11 15 16 15 18 22 22 21 20 20 22 24 22 21 23 24
21 22 22 22 21 16 7 5 6 8 6 2 7 11 10 10 7 3 5 7 3 4 5 5 2 1 2 3 5 6 3 1 3 4 2 3 4 7 7 8 9 9 11 9 8 8 11 17 16 13 16 17 15 14 15 15 12 8 8 11 15 18 17 16 13 10 10 9 11 16 14 9 9 12 16 18 19 20 22 21 19 21 23 24 22 22 25 27
21 22 22 22 19 14 6 5 5 5 5 6 9 11 10 9 3 4 6 5 3 3 3 4 1 1 3 4 5 7 5 4 5 4 1 5 5 6 9 10 10 9 11 10 8 8 12 17 18 15 15 14 13 12 14 16 13 11 10 8 9 13 16 17 13 10 10 10 11 13 14 11 10 10 14 19 21 20 20 20 19 21 23 23 23 23 25 26
23 23 22 20 16 11 7 3 3 5 6 7 9 10 9 5 2 5 6 4 3 4 2 2 2 1 5 6 4 4 5 3 5 3 2 8 6 7 8 7 10 12 12 12 11 9 10 14 18 15 11 12 12 13 16 17 13 12 13 8 5 8 11 14 13 10 10 11 12 14 15 13 10 9 11 14 17 18 18 18 18 22 24 23 23 25 24 24
23 23 21 18 12 8 8 5 3 5 7 7 9 10 7 4 4 6 6 2 3 5 2 2 0 1 6 7 5 0 4 2 5 7 6 7 7 8 10 8 9 10 10 12 13 14 13 13 15 14 12 12 14 15 17 18 14 12 14 10 6 8 9 9 10 10 10 12 14 17 18 16 11 9 10 12 14 15 16 16 17 21 25 25 25 24 23 24
24 22 19 16 8 4 6 4 3 7 8 7 8 8 6 5 5 7 3 1 2 3 3 2 2 2 4 5 1 2 3 2 3 6 5 5 7 8 8 7 8 7 8 10 10 14 17 14 11 12 15 15 14 14 14 15 14 12 11 10 8 8 8 8 8 10 11 12 13 17 20 18 13 9 9 13 15 16 16 16 18 20 24 29 28 26 25 26
22 20 17 13 7 5 6 6 7 9 8 5 7 8 7 5 6 6 0 2 2 2 2 3 4 2 3 4 1 4 4 2 3 5 4 4 5 3 2 3 2 4 7 8 9 12 15 15 12 11 15 17 14 12 11 12 13 12 10 10 9 8 7 8 9 9 11 11 12 15 18 16 14 11 12 14 15 17 16 14 17 21 25 29 29 28 28 27
20 18 14 9 7 7 7 9 10 7 6 5 9 8 6 5 5 1 3 1 1 5 3 2 2 3 5 5 0 4 5 2 5 5 3 5 5 2 1 4 6 7 6 5 8 9 10 14 17 14 12 15 15 11 10 11 11 12 11 10 10 9 8 10 10 9 10 11 13 16 16 13 12 13 16 16 14 15 18 19 20 22 25 28 30 30 28 27
19 15 9 5 8 11 10 10 10 5 6 7 9 7 7 6 2 2 2 5 5 3 2 2 4 4 4 2 4 5 4 2 3 7 5 5 6 5 5 4 6 7 8 7 7 9 10 11 16 17 12 14 18 16 12 11 11 12 12 10 10 9 8 9 8 9 10 9 13 17 14 11 11 10 14 18 17 18 17 21 22 23 24 27 28 27 25 26
16 11 5 5 9 12 10 10 9 5 6 8 8 6 6 5 1 3 3 5 4 1 1 1 6 7 5 3 3 3 2 1 3 6 7 4 4 3 1 5 8 7 7 7 5 7 12 10 10 19 20 16 17 17 16 14 10 11 12 11 11 10 9 8 7 10 10 9 11 13 10 9 8 8 12 15 18 21 17 13 16 21 22 25 26 25 26 28
12 7 3 4 7 10 9 8 6 5 7 9 8 5 2 2 5 5 4 4 3 4 4 4 5 6 4 3 3 6 2 4 4 4 4 3 2 3 4 6 7 8 7 6 6 6 9 10 3 8 20 22 19 18 18 16 11 8 12 12 11 12 12 9 9 10 11 11 9 9 10 10 9 9 12 13 15 20 19 14 13 15 17 21 25 28 29 28
10 4 3 4 9 10 7 5 5 5 9 9 5 3 3 5 6 5 4 4 3 3 8 6 2 2 4 2 2 4 3 4 2 1 2 1 1 1 4 4 4 7 9 8 7 6 6 8 8 8 12 18 20 20 19 19 17 10 10 11 11 13 13 10 8 8 10 10 8 10 12 12 10 9 11 14 15 15 18 18 17 15 15 18 21 25 27 26
9 2 4 5 10 8 5 3 4 6 9 8 2 2 4 4 6 6 4 5 4 3 7 5 2 1 4 4 2 4 5 4 2 2 4 1 2 2 3 2 4 6 9 10 7 4 7 9 8 8 9 11 14 17 15 19 23 18 12 9 10 12 11 9 8 8 10 9 7 10 13 11 10 9 10 16 17 16 16 17 18 19 19 20 21 22 25 26
7 5 3 8 10 5 1 0 3 7 9 6 2 2 3 4 6 5 3 3 4 4 5 4 2 1 2 3 6 4 2 3 6 4 3 1 1 3 4 2 4 7 9 9 8 6 6 8 8 8 10 10 11 12 12 14 19 20 17 12 10 10 10 10 9 8 8 8 8 10 11 9 8 9 11 15 17 19 18 16 16 19 21 25 26 24 25 26
8 8 2 11 8 1 1 4 8 9 6 2 3 3 4 3 4 4 3 4 4 3 4 4 2 2 2 3 5 4 1 3 6 5 2 2 1 3 5 4 4 8 9 9 10 7 6 7 8 10 11 11 10 10 12 13 12 15 15 12 10 9 10 11 10 10 9 8 7 8 8 8 7 9 12 13 13 15 19 18 16 17 22 25 26 26 26 27
10 7 7 12 4 1 7 10 7 5 1 3 4 4 4 2 3 4 3 4 4 1 3 6 3 4 5 4 4 4 3 5 6 5 5 4 2 1 4 6 6 8 9 8 8 5 4 6 8 10 9 10 12 12 15 17 16 14 13 13 13 11 11 13 12 12 11 9 8 7 7 6 5 7 11 12 9 9 13 16 17 19 23 24 23 25 26 26
9 4 9 11 3 6 13 7 1 3 1 4 4 5 3 2 2 2 1 3 3 1 1 4 2 3 5 3 5 6 5 7 7 6 7 5 2 2 6 8 8 8 8 8 6 4 4 6 8 9 10 11 14 14 12 15 20 19 14 13 15 14 12 11 12 12 11 10 10 8 8 4 3 3 7 11 11 8 9 11 13 18 23 24 24 25 24 24
7 6 9 8 5 10 12 1 4 2 3 5 3 5 3 1 2 1 1 2 2 1 2 4 2 2 4 3 6 8 6 6 7 7 9 8 1 6 9 10 9 9 7 6 5 6 5 6 7 7 10 12 15 15 13 14 16 16 14 13 15 17 16 13 12 12 11 12 12 8 9 6 7 6 2 5 7 8 8 10 10 13 16 19 22 23 22 23
6 6 7 8 10 11 7 1 3 3 4 3 2 4 2 2 4 4 3 4 4 2 3 5 4 2 4 4 5 8 6 5 5 6 8 8 2 6 8 7 6 8 7 4 5 7 4 6 7 7 8 9 11 12 12 13 11 11 13 15 17 20 22 19 13 11 10 13 14 11 10 8 7 9 5 3 4 5 5 8 9 9 10 13 18 20 18 20
4 1 5 9 11 9 6 7 5 3 4 2 3 2 2 3 5 4 5 4 4 5 3 2 2 2 5 6 5 7 7 5 5 4 4 6 4 5 8 5 5 9 7 8 10 9 6 6 6 8 9 9 8 7 6 7 7 9 14 20 23 23 23 19 14 12 10 10 14 12 10 9 9 10 9 7 7 7 5 4 6 8 8 10 13 12 6 9
5 1 3 5 7 9 10 9 8 4 2 2 2 2 2 2 7 3 5 3 1 5 5 1 4 5 4 5 6 7 7 6 5 4 4 5 5 4 5 5 7 10 6 6 8 9 6 7 9 11 12 11 9 8 10 11 9 10 14 19 22 22 23 20 13 12 10 7 12 13 8 9 11 11 11 9 10 11 9 8 8 9 10 10 10 6 1 2
5 4 5 3 3 6 8 8 8 6 4 2 1 1 3 4 3 4 1 2 3 6 5 2 4 5 3 4 6 6 5 6 6 6 7 7 6 5 6 8 10 9 5 6 10 9 6 8 12 15 16 18 18 18 17 15 14 14 17 17 14 16 21 21 13 12 14 11 11 13 13 13 11 7 9 8 7 8 7 4 3 5 8 8 5 4 4 4
6 4 5 4 3 5 6 5 7 6 7 6 2 2 3 3 4 2 1 1 3 5 4 1 2 4 3 4 6 5 6 6 6 6 6 6 7 8 8 10 11 10 9 10 11 8 7 9 12 15 17 19 22 22 19 17 16 16 18 18 15 18 20 18 16 17 18 13 10 13 15 14 13 9 8 7 4 4 6 6 4 4 7 8 6 3 5 9
7 5 5 3 3 5 5 3 4 6 6 5 2 3 5 4 4 3 1 3 4 2 3 4 2 3 5 4 5 5 5 6 6 5 5 6 7 8 8 8 9 9 9 9 8 6 7 9 12 15 16 18 20 21 20 18 18 18 19 19 16 16 18 16 19 20 20 20 17 14 12 10 14 12 7 12 8 6 8 5 3 4 4 5 4 1 2 4
7 5 5 4 5 5 4 4 3 3 4 3 2 4 4 4 4 3 2 4 5 2 3 6 5 5 6 4 5 7 6 7 8 7 6 7 7 7 7 6 6 6 6 7 6 5 5 7 10 12 12 14 17 19 20 20 20 20 20 19 17 17 16 15 17 18 20 23 23 21 17 10 13 15 2 11 8 9 9 9 5 4 2 2 4 5 5 5
6 4 5 4 4 3 4 5 3 2 3 4 3 3 3 3 5 5 5 3 6 6 5 6 6 6 6 5 7 8 7 8 10 10 11 10 10 9 8 6 7 7 6 7 6 6 7 7 9 10 10 11 14 17 19 20 21 22 21 20 18 17 15 14 15 17 18 20 23 23 19 10 11 16 7 9 10 11 10 11 7 5 5 6 8 9 8 8
6 4 5 7 1 1 3 3 2 2 2 4 3 3 3 4 4 6 4 0 3 6 5 6 7 6 6 6 7 7 9 11 13 14 15 15 15 16 14 13 13 11 8 8 7 7 8 7 7 9 10 11 13 16 17 17 18 19 18 18 19 17 17 16 17 18 18 18 18 17 15 12 14 15 8 8 10 11 10 11 11 10 11 11 10 11 11 9
Wind_Direction
7 3 0 357 354 353 352 349 346 344 344 346 346 344 343 342 344 344 342 343 342 344 344 346 350 348 342 331 327 337 333 324 319 289 271 235 214 225 219 206 201 198 192 174 169 180 182 190 195 195 205 210 223 236 223 214 229 240 231 253 264 357 281 242 213 125 119 159 156 162 172 145 146 141 131 145 140 133 131 124 125 122 128 137 140 143 148 152
4 3 0 356 353 351 349 348 344 341 341 342 342 342 340 338 340 339 338 338 340 342 342 347 350 350 349 343 345 343 336 353 345 292 279 247 228 234 227 210 196 193 186 172 178 185 184 190 192 192 204 215 220 226 223 209 216 236 247 254 252 191 233 238 6 91 122 194 168 163 174 146 147 142 151 162 141 142 138 126 126 118 118 130 139 144 148 154
2 0 359 355 352 350 348 346 342 339 339 339 340 339 338 336 336 335 334 334 337 338 339 346 348 352 357 359 357 340 348 359 315 278 277 253 227 228 228 215 196 189 183 177 186 189 189 191 190 193 205 218 218 215 216 203 212 230 242 264 305 260 253 249 31 83 131 181 185 163 161 141 143 149 171 167 143 155 149 137 136 126 129 137 143 147 150 156
360 359 356 353 350 349 349 345 341 339 338 338 338 336 336 334 333 332 330 332 335 333 336 343 345 350 356 10 5 350 1 306 203 115 286 262 218 217 228 215 199 188 178 180 193 194 198 196 193 200 211 224 219 217 222 211 213 225 235 251 153 252 260 92 52 42 104 163 176 159 152 146 153 163 170 145 142 160 145 146 146 138 139 143 149 151 154 159
359 359 355 351 349 347 347 344 341 339 338 339 336 335 334 331 331 330 327 332 333 329 332 337 342 339 337 359 357 356 357 248 130 63 295 269 220 222 237 213 199 185 171 180 198 196 202 201 198 207 220 234 224 221 229 225 228 248 256 234 192 243 266 52 64 37 31 137 153 163 164 156 164 168 131 100 115 128 121 163 153 145 147 148 153 155 157 162
359 358 355 352 349 346 345 343 340 338 339 339 336 334 331 329 328 326 327 330 329 328 329 331 336 335 331 329 336 351 318 264 64 323 277 293 264 241 252 214 194 180 169 187 201 197 203 200 199 209 222 236 233 229 229 230 234 249 262 238 202 238 267 322 306 37 2 14 139 173 172 155 165 159 116 107 127 130 168 176 153 148 152 152 156 159 161 165
358 357 356 353 349 348 346 342 339 337 338 338 336 333 329 327 324 325 327 326 327 326 325 327 331 343 346 328 329 324 260 258 48 318 284 295 288 266 255 197 187 178 173 196 201 196 203 199 201 210 218 232 238 238 236 234 233 239 262 267 232 236 245 225 240 280 307 333 139 184 173 169 175 144 113 119 149 181 177 157 146 149 153 155 158 162 165 166
356 356 355 353 350 349 347 343 340 337 338 338 336 331 329 327 323 326 325 324 326 323 323 323 329 345 342 338 319 274 247 210 49 332 308 297 287 283 207 176 182 179 180 201 200 197 203 201 204 211 218 230 238 239 241 241 233 235 251 271 269 248 248 231 230 239 249 252 205 189 184 177 156 124 120 142 176 177 152 141 145 151 153 158 161 164 167 168
353 354 354 352 349 347 346 344 340 338 339 339 336 332 329 326 324 325 322 322 322 319 321 318 332 341 334 354 297 271 202 109 340 341 344 332 8 122 159 171 179 179 188 203 202 202 203 205 207 213 229 236 242 241 237 239 232 232 239 253 261 254 246 231 234 238 237 235 193 183 196 167 126 121 140 160 183 159 140 144 150 153 157 160 164 166 167 169
351 352 352 351 347 346 346 344 341 339 338 339 337 334 331 327 325 323 320 319 318 318 319 323 338 337 351 5 286 274 114 75 333 350 357 14 74 124 151 176 181 182 198 204 203 206 204 210 210 218 242 252 256 251 235 233 241 248 242 249 257 259 253 236 235 231 232 230 205 206 190 149 145 154 156 158 176 166 146 152 153 156 162 161 164 168 168 172
350 352 351 349 347 346 346 344 344 340 340 341 338 338 335 331 325 320 318 313 312 318 320 336 339 332 32 304 277 296 11 312 322 329 296 106 121 156 169 186 188 191 204 204 206 209 208 216 215 221 239 253 260 255 240 236 246 259 262 262 254 254 252 240 234 225 231 222 215 227 161 130 178 175 182 174 176 175 156 155 158 161 163 163 166 167 170 175
350 351 349 348 347 347 347 347 348 343 343 344 341 341 337 335 328 319 314 304 305 320 330 342 331 1 48 268 263 311 335 308 255 253 254 173 180 188 188 194 197 200 205 207 209 211 215 219 222 228 227 241 251 248 247 239 244 253 261 270 255 247 241 232 229 222 230 217 202 225 175 138 220 185 184 184 174 174 167 163 165 165 163 166 167 167 172 176
349 350 349 348 348 348 348 350 352 348 348 348 346 343 340 340 333 322 315 304 310 324 346 343 336 118 261 266 236 316 336 347 250 187 161 216 201 197 200 201 203 206 210 213 214 213 219 222 225 233 235 246 247 265 314 249 241 247 248 258 257 252 238 222 221 217 222 217 198 213 211 185 218 198 172 163 174 181 177 174 171 167 165 167 167 168 173 176
348 349 349 348 349 348 349 354 356 354 354 354 349 345 345 347 342 347 340 320 319 343 3 355 114 129 262 264 120 339 3 33 252 167 185 229 201 203 202 205 207 206 212 219 221 218 219 224 230 240 242 244 252 296 317 248 232 237 238 242 244 251 245 216 207 210 211 206 202 207 218 198 203 202 169 155 179 185 188 187 175 170 168 168 169 171 174 178
348 350 349 350 350 348 351 356 359 358 359 357 353 351 350 352 358 9 354 340 3 27 13 21 104 142 255 226 127 351 14 29 239 200 243 224 201 214 198 202 206 201 209 217 223 223 218 221 227 238 240 236 250 276 273 240 224 223 228 231 230 235 252 223 191 200 207 192 197 206 218 190 197 195 167 167 185 185 203 199 179 174 172 171 171 172 175 178
348 349 349 352 350 349 351 356 360 360 0 358 357 360 355 0 27 18 6 10 93 38 22 21 358 304 272 304 120 334 9 357 290 257 242 209 206 221 193 193 198 196 204 210 216 221 216 218 223 232 237 229 236 248 244 236 220 216 223 227 227 220 239 231 181 195 208 195 194 206 222 174 199 195 156 168 192 189 202 201 188 184 176 174 173 174 177 178
348 349 350 353 351 350 349 353 358 359 0 0 3 10 6 18 44 24 27 46 59 34 23 19 325 274 270 348 327 316 350 326 307 268 220 201 205 206 183 187 191 191 193 201 209 211 206 210 218 225 233 229 220 223 232 230 215 208 216 227 233 226 229 224 184 193 205 206 198 202 221 175 163 189 160 171 189 191 199 196 195 194 180 177 176 176 178 179
348 350 350 353 353 349 346 350 354 357 0 3 12 17 16 20 5 14 34 39 22 283 273 19 303 251 243 20 344 332 344 337 339 212 195 197 204 195 187 190 186 184 188 198 203 202 199 200 211 217 221 224 218 214 219 222 219 212 210 220 232 230 231 222 199 194 201 211 205 197 219 191 149 198 183 175 182 199 204 191 200 205 184 178 180 180 179 179
346 349 350 352 352 347 343 346 348 357 359 7 20 9 5 356 321 1 29 315 297 294 274 51 303 281 3 25 356 336 332 339 11 173 184 191 200 192 188 190 184 185 189 194 194 196 197 196 208 216 212 212 214 214 218 226 229 226 219 219 228 229 231 227 209 191 196 212 214 200 212 202 172 188 191 176 184 207 204 184 211 212 183 179 184 182 183 183
344 347 349 350 351 346 339 339 343 355 3 20 24 359 341 342 303 43 8 278 254 322 322 358 333 316 337 355 348 334 317 275 290 234 182 185 191 189 187 188 188 192 199 197 188 191 197 203 207 213 214 211 213 218 226 237 244 250 239 224 226 230 231 227 210 189 196 214 217 211 216 206 180 188 186 178 185 201 202 199 221 211 180 181 189 183 185 188
342 344 347 348 348 344 335 334 336 348 8 30 25 7 1 1 337 346 342 295 214 308 286 341 331 312 331 340 344 342 336 259 123 92 185 185 187 192 184 188 195 197 206 207 193 189 200 216 214 212 218 217 216 221 228 239 247 254 256 242 228 227 229 229 211 186 194 221 221 219 223 205 195 207 188 176 183 193 204 208 213 209 189 179 186 188 185 187
339 340 343 345 345 343 334 328 329 344 7 24 20 19 25 7 347 334 323 287 237 241 246 268 275 311 351 323 342 337 295 266 126 105 181 195 201 203 182 191 210 203 202 209 200 190 204 223 221 214 218 224 222 221 225 234 242 242 245 252 242 229 227 229 222 197 190 215 222 218 226 215 205 210 191 178 193 199 207 210 202 200 194 179 185 190 183 187
336 336 339 342 343 344 335 324 335 358 9 10 6 11 1 346 336 324 301 283 269 224 220 239 243 332 353 304 353 311 286 276 147 98 139 218 227 222 207 205 218 215 206 208 207 203 209 218 221 220 216 221 225 223 222 226 235 238 233 238 242 237 233 225 221 214 201 201 220 218 222 229 217 208 192 184 199 206 210 219 210 195 188 181 186 189 182 189
333 333 336 339 340 343 337 326 353 13 2 351 11 13 346 330 329 318 284 274 263 203 194 224 235 315 350 351 300 292 299 292 291 45 126 249 250 226 230 233 225 223 216 214 217 220 226 217 212 219 218 218 224 221 220 223 224 229 232 236 239 235 240 238 225 224 214 199 224 234 225 230 226 216 198 178 196 212 214 222 214 192 185 181 182 189 188 191
331 331 334 336 338 343 341 334 39 1 325 300 8 359 338 325 320 308 277 264 247 179 173 189 215 239 327 319 280 293 286 229 258 0 53 266 281 254 237 241 235 230 220 216 224 228 230 226 212 213 215 215 222 220 216 222 224 224 226 231 242 246 247 248 242 238 228 211 214 227 234 229 218 222 215 185 189 202 209 221 210 187 184 182 182 189 192 196
329 331 333 333 335 341 338 294 317 323 312 284 341 337 333 324 305 288 271 257 211 153 163 175 199 184 25 296 313 299 257 194 184 302 265 260 269 266 253 238 225 234 236 221 224 235 231 231 223 214 215 212 217 224 216 218 230 229 219 220 231 245 254 251 247 241 237 232 215 212 228 238 214 217 221 208 200 195 195 207 207 196 188 179 182 189 190 197
331 331 332 332 334 339 331 277 285 309 312 323 334 330 325 316 297 240 249 251 190 144 155 143 136 72 33 329 305 286 278 86 195 204 254 298 249 243 251 246 225 229 249 241 227 225 221 230 224 206 217 217 213 222 213 209 227 235 221 218 222 230 241 247 248 241 238 251 238 215 216 237 235 218 213 213 215 207 196 196 200 204 196 179 180 190 192 196
332 330 331 335 335 338 329 279 292 315 318 322 324 322 318 314 289 196 246 259 134 130 130 104 109 292 310 295 282 289 327 328 250 171 146 272 243 231 240 251 256 246 241 240 238 219 206 225 228 208 212 223 214 215 212 208 222 238 233 230 228 226 231 238 246 249 243 250 250 227 214 227 234 221 214 212 214 214 206 202 197 197 196 185 182 192 197 200
331 329 331 335 339 350 351 320 290 295 313 315 310 317 317 304 232 216 255 270 125 127 92 84 160 222 289 256 220 292 312 290 290 351 275 244 226 242 255 263 275 274 256 245 246 240 212 214 226 221 210 221 220 211 217 220 220 232 237 230 232 242 234 232 236 243 247 246 244 236 231 234 228 219 225 218 213 214 209 207 198 190 191 189 189 196 200 202
329 328 330 335 348 359 338 319 264 284 307 300 303 321 305 251 228 232 236 230 118 114 89 33 166 272 295 256 182 233 283 256 321 310 253 221 205 234 259 265 266 274 269 254 245 251 249 221 218 226 215 216 227 219 217 224 220 222 235 230 222 238 239 234 233 234 243 245 238 237 240 243 234 219 225 225 218 212 210 210 200 186 183 186 193 197 199 203
328 326 328 328 332 340 312 290 257 285 290 287 310 314 268 226 239 251 245 143 110 125 154 78 27 268 301 288 179 33 263 197 340 298 248 206 203 216 234 231 228 239 249 252 241 241 248 237 216 224 221 217 229 229 213 213 217 217 225 226 219 222 225 229 227 223 233 240 234 232 238 243 239 221 218 225 218 210 214 211 196 189 186 185 190 195 199 205
327 323 324 317 309 330 316 291 285 273 256 275 306 284 246 229 235 242 128 161 191 95 113 66 37 353 319 276 281 356 289 226 5 313 290 275 237 207 271 280 261 248 235 233 229 221 230 237 227 217 217 216 224 227 208 201 210 215 215 218 218 212 211 217 217 216 228 236 233 227 228 235 243 239 232 229 217 209 215 212 201 200 192 183 184 192 199 200
328 323 321 313 315 333 311 293 296 264 224 273 285 260 244 254 248 273 48 91 46 51 59 8 357 337 304 265 165 355 276 258 353 320 290 274 256 171 63 344 333 288 272 269 254 226 211 220 224 221 209 206 216 222 208 196 198 209 211 208 212 212 208 212 214 219 228 230 226 226 226 230 237 238 236 237 235 221 206 204 213 210 194 183 181 189 197 194
329 324 321 325 340 344 334 317 310 263 226 267 268 244 238 249 249 37 42 64 56 64 90 344 302 269 270 295 28 354 278 142 23 314 285 245 244 202 151 68 6 301 286 293 276 248 234 216 209 216 205 192 207 221 225 213 200 206 213 215 220 222 221 217 213 218 228 228 218 217 223 230 228 225 225 229 238 241 218 199 209 216 201 183 175 183 197 198
335 337 340 351 344 336 326 311 297 252 234 259 255 238 243 254 19 47 47 57 49 356 127 302 283 256 201 151 85 47 326 48 47 318 284 251 267 268 123 50 24 346 303 283 281 268 259 246 203 205 205 195 201 215 227 232 217 199 207 221 222 223 236 243 240 233 233 235 219 210 217 228 233 233 226 220 222 232 234 208 207 219 204 178 170 182 200 205
343 341 325 332 327 314 303 294 282 245 239 252 248 240 237 36 24 26 26 6 349 337 305 245 248 256 212 155 139 117 77 315 339 321 262 237 309 9 35 27 13 356 340 307 296 295 257 252 279 223 210 202 200 203 214 231 234 199 201 219 220 222 239 250 252 246 240 240 227 211 216 216 225 232 221 220 220 217 218 211 211 218 197 176 177 187 197 205
346 327 273 307 323 316 306 288 264 232 240 251 256 299 27 55 23 13 19 337 323 324 294 265 187 268 277 277 184 99 32 304 314 332 270 183 141 69 45 45 28 357 345 332 300 305 296 275 307 305 235 211 207 208 211 223 236 233 208 204 207 221 237 247 248 238 232 239 230 218 222 211 210 218 204 206 219 217 210 205 204 204 193 187 189 189 194 201
346 292 234 334 340 324 307 276 244 227 241 249 236 23 11 42 36 24 15 336 304 272 282 285 58 355 285 293 321 34 358 314 25 357 291 242 138 53 8 26 41 9 340 326 295 290 319 293 276 271 250 229 221 220 217 215 224 241 247 217 203 215 222 226 238 236 228 233 228 224 231 220 207 206 196 198 204 210 212 209 207 204 198 201 202 196 197 201
339 260 239 8 352 322 342 295 239 237 239 249 234 110 61 54 50 29 357 334 298 282 304 332 27 288 244 330 336 348 6 333 341 330 291 294 118 86 48 1 347 348 340 322 297 288 299 285 273 263 251 245 233 221 222 213 211 228 247 243 225 224 219 214 224 238 238 236 228 222 226 228 217 201 203 206 203 205 209 208 212 212 207 210 211 205 201 201
310 265 12 22 354 341 19 256 244 243 237 310 4 83 90 86 75 45 2 336 304 293 334 349 356 283 306 358 317 297 5 333 310 299 289 309 252 123 69 26 341 331 329 303 281 280 276 263 269 274 259 245 234 217 221 227 214 215 229 236 231 229 226 221 217 223 237 244 238 231 227 226 219 204 206 207 197 201 210 210 211 215 215 214 211 207 205 202
304 270 35 23 359 339 301 265 245 259 236 62 43 71 65 34 60 65 49 343 309 328 353 326 317 312 317 325 309 316 329 291 281 279 268 260 239 153 52 22 351 332 324 288 261 264 273 261 262 268 261 240 233 222 216 228 233 224 218 224 225 220 220 223 218 213 223 237 240 244 245 231 205 193 200 203 197 193 205 212 210 211 219 219 210 206 208 204
313 299 15 4 340 309 300 278 111 330 358 73 56 69 64 328 4 28 48 343 299 114 7 291 284 321 311 320 325 327 313 285 282 281 275 265 267 35 42 25 352 328 314 281 272 10 0 286 272 266 264 264 257 242 231 245 249 240 233 234 230 222 219 223 220 213 213 225 235 245 255 247 95 116 194 201 204 195 190 206 210 209 215 218 213 207 205 202
358 32 18 357 337 312 296 255 99 1 51 78 68 67 66 322 356 349 24 346 291 141 281 285 43 11 314 344 324 308 304 300 294 287 283 274 299 30 13 5 349 320 305 279 280 16 6 268 263 265 262 275 277 269 270 274 264 247 241 246 240 228 225 228 229 227 220 216 215 224 243 224 120 113 183 184 185 193 193 199 208 215 215 212 212 209 202 198
20 36 31 18 349 320 292 325 91 96 77 90 127 93 92 44 20 338 6 17 340 351 306 308 20 33 297 323 310 299 309 308 297 297 294 284 335 16 342 347 353 305 304 355 360 359 333 246 247 256 250 250 253 253 251 246 245 243 238 241 242 233 229 230 232 237 238 231 225 216 222 220 145 130 141 142 173 204 206 191 196 215 220 213 208 205 202 200
303 281 66 49 16 9 29 17 18 99 109 106 95 86 192 125 78 339 333 12 342 324 315 327 357 283 295 316 299 292 291 274 272 278 276 270 275 308 307 331 335 288 300 9 350 320 288 255 254 250 239 229 223 226 241 244 248 251 243 239 234 228 228 231 230 230 235 252 249 231 212 218 201 173 174 195 214 227 242 225 204 200 206 221 216 201 202 206
328 11 46 62 53 55 61 35 10 17 101 131 90 34 321 62 96 93 312 330 20 313 303 319 297 279 308 325 294 282 269 254 264 271 261 260 257 273 287 278 274 277 300 342 308 285 272 260 256 249 247 253 268 292 308 313 306 287 270 250 234 230 232 230 231 231 225 237 247 242 242 240 223 194 183 199 214 212 212 219 217 201 192 209 221 211 273 202
360 30 10 10 65 58 56 50 32 17 21 30 340 353 350 341 60 99 330 333 12 322 310 359 329 314 348 329 292 287 287 283 288 285 278 279 283 285 268 255 258 266 279 272 257 255 262 257 250 249 251 258 272 283 288 292 292 291 289 277 272 276 252 230 229 240 228 225 231 232 243 259 256 213 175 187 206 187 177 190 208 189 166 157 164 180 208 204
24 56 41 0 335 31 36 31 34 34 32 34 22 295 324 348 4 26 55 275 313 316 314 5 350 319 314 307 300 302 306 293 277 277 282 282 289 289 275 267 262 246 238 247 246 245 257 258 253 254 255 257 265 271 272 277 280 282 285 279 286 301 279 242 231 239 234 233 236 228 229 247 256 222 136 81 30 61 50 28 53 101 112 95 85 140 194 198
43 63 62 23 357 46 51 3 10 47 45 25 24 2 350 8 18 355 310 290 293 316 317 301 305 300 284 292 301 292 292 291 277 278 289 283 283 283 276 278 267 240 232 245 252 256 263 263 259 260 262 261 265 270 270 272 274 273 275 272 268 282 285 256 230 234 242 243 242 236 233 249 256 233 106 51 358 354 10 352 33 62 72 67 44 345 243 213
37 35 35 42 64 59 51 39 17 51 62 11 357 36 0 346 11 358 306 299 302 295 291 295 302 300 288 288 284 273 278 290 286 287 286 278 278 275 272 277 272 254 249 253 252 244 246 264 268 267 267 262 262 270 270 266 267 265 264 264 260 261 266 251 231 232 240 239 235 233 231 241 263 256 343 32 333 313 328 309 320 17 35 38 1 345 349 348
39 32 340 336 48 26 353 41 23 305 46 33 8 31 2 353 13 339 298 299 311 305 300 304 305 298 290 282 273 275 283 285 282 285 281 273 273 275 273 276 278 277 272 265 257 235 229 255 267 261 261 259 254 261 265 262 260 258 253 251 250 248 245 242 239 239 240 238 234 232 231 232 252 256 289 6 322 296 304 303 318 4 0 339 322 318 334 341
36 41 328 305 353 29 319 19 26 308 43 44 21 22 353 347 359 328 305 267 294 290 294 304 302 299 293 285 284 296 303 298 293 290 284 279 276 274 269 265 264 264 265 267 269 256 245 253 262 259 262 262 256 256 263 262 252 245 243 241 240 240 240 240 243 243 244 242 233 229 232 234 240 254 287 338 315 298 304 312 321 334 334 324 304 302 315 319